User: anonymous   Login
Location: *
(45.5667°S, 177.5167°W)
Time: 08:53:20
(UTC+00:00)
Language:

Cosmos 1833 Rocket - Orbit

View from above orbital plane
View from above orbital plane
View from above satellite
View from above satellite

Ground track
Ground track

The orbit data is extracted from the following two-line orbital elements,

1 17590U 87027B   22225.13047581 -.00000228  00000-0 -89701-4 0  9991
2 17590  71.0035 144.6857 0006979 299.6226  60.4202 14.16830720830818
Epoch (UTC): 13 August 2022 03:07:53
Eccentricity: 0.0006979
inclination: 71.0035°
perigee height: 831 km
apogee height: 841 km
right ascension of ascending node: 144.6857°
argument of perigee: 299.6226°
revolutions per day: 14.16830720
mean anomaly at epoch: 60.4202°
orbit number at epoch: 83081

The dashed part of the orbit path shows where the satellite is in the earth's shadow,  

DLR